Preview of NWS' New Version of Forecast
This preview is not operational and should not be used for support decisions.

Regional Weather Roundup (RWR)

Issued by National Weather Service (NWS)

                            
000
ASUS45 KBOU 192210
RWRCO 

WEATHER ROUNDUP FOR COLORADO
NATIONAL WEATHER SERVICE DENVER/BOULDER CO
400 PM MDT WED JUN 19 2019

NOTE: "FAIR" INDICATES FEW OR NO CLOUDS BELOW 12000 FEET WITH NO
SIGNIFICANT WEATHER AND/OR OBSTRUCTIONS TO VISIBILITY.

COZ001>005-013-030-031-192300-
...NORTHWEST COLORADO...
  
CITY           SKY/WX    TMP DP  RH WIND       PRES   REMARKS
CRAIG          FAIR      78  36  21 W20G31    29.98F                  
HAYDEN         FAIR      74  37  26 W22G28    30.01F                  
MEEKER         FAIR      77  39  25 SW14G22   29.99F                  
RANGELY        FAIR      85  36  17 W16G22    29.92F                  
RABBIT EARS PA NOT AVBL                                               
STEAMBOAT SPGS FAIR      71  41  34 SW18G26   30.02F                  
WALDEN         FAIR      66  36  32 SW22G35   30.08F                  
$$

COZ006>008-011-192300-
...WEST CENTRAL VALLEYS...
  
CITY           SKY/WX    TMP DP  RH WIND       PRES   REMARKS
GRAND JUNCTION FAIR      86  38  18 W12       29.92F                  
MONTROSE       FAIR      81  38  21 NW13      30.02F                  
EAGLE          CLOUDY    72  43  35 W17G24    30.05S                  
RIFLE          FAIR      82  40  22 W20G37    29.95F                  
DELTA          FAIR      88  31  12 W17       29.96F                  
NUCLA          FAIR      82  30  15 W10G18    30.05F                  
$$

COZ017>023-064>068-192300-
...SOUTHWEST COLORADO...
  
CITY           SKY/WX    TMP DP  RH WIND       PRES   REMARKS
DURANGO        FAIR      80  35  19 W18G32    30.08F                  
CORTEZ         FAIR      84  37  18 NW18G28   30.04F                  
PAGOSA SPRINGS FAIR      77  32  19 W14G20    30.14F                  
TELLURIDE      FAIR      64  32  29 W15G22    30.28F                  
WOLF CREEK PAS PTSUNNY   50  23  34 SW9G18    30.48F                  
$$

COZ009-010-012-014-032>034-037-058>063-192300-
...CENTRAL COLORADO...
  
CITY           SKY/WX    TMP DP  RH WIND       PRES   REMARKS
ASPEN          FAIR      72  36  26 VRB3G20   30.11F                  
BUENA VISTA    FAIR      73  27  18 W20G25    30.09F                  
COPPER MTN     PTSUNNY   50  32  50 MISG      30.37R                  
BERTHOUD PASS  FAIR      45  36  70 NW35G46   30.34R                  
COTTONWOOD PAS FAIR      64  23  20 W16G29    30.21F                  
GUNNISON       PTSUNNY   70  36  28 W18       30.13F                  
GRANBY         MOCLDY    66  39  37 W20G25    30.10F                  
KREMMLING      LGT RAIN  64  45  48 W12       30.07S                  
LEADVILLE      FAIR      59  30  33 W9G23     30.23F                  
MONARCH PASS   FAIR      52  30  43 MISG      30.48S                  
SALIDA         FAIR      77  32  19 SW14G24   30.14F                  
SUNLIGHT       PTSUNNY   48  36  61 SW14G30   30.34S                  
WILKERSON PASS FAIR      55  25  30 W8G17     30.33S                  
$$

COZ069>075-192300-
...SAN LUIS VALLEY/SANGRE DE CRISTO MOUNTAINS...
  
CITY           SKY/WX    TMP DP  RH WIND       PRES   REMARKS
ALAMOSA        FAIR      74  34  23 MISG      30.09F                  
DEL NORTE      FAIR      74  30  19 W12G26    30.12F                  
LA VETA PASS   NOT AVBL                                               
SAGUACHE       FAIR      75  30  19 NW22G29   30.12F                  
$$

COZ035-036-038>040-192300-
...NORTHERN COLORADO FRONT RANGE...
  
CITY           SKY/WX    TMP DP  RH WIND       PRES   REMARKS
DENVER INTL AP PTSUNNY   82  39  21 NW8       29.86F                  
AURORA         MOSUNNY   81  39  22 NW12G22   29.88F                  
FRONT RANGE AP PTSUNNY   79  45  29 SE5       29.89F                  
ERIE MUNI ARPT FAIR      83  33  16 W14G21    29.89F                  
BOULDER MUN AP FAIR      79  36  21 W7G18     29.85F                  
CENTENNIAL     FAIR      83  35  18 NW10G20   29.89F                  
BROOMFIELD     PTSUNNY   79  37  22 W17G23    29.88F                  
FORT COLLINS   FAIR      84  44  24 SE10      29.82F                  
LONGMONT       FAIR      85  39  19 SW8       29.83F                  
$$

COZ041-046-047-076>085-087-088-192300-
...PIKES PEAK/PALMER DIVIDE AND SOUTHERN FOOTHILLS...
  
CITY           SKY/WX    TMP DP  RH WIND       PRES   REMARKS
COLO. SPRINGS  FAIR      77  42  28 S13G23    29.94F                  
A. F. ACADEMY  FAIR      79  32  18 NW8G22    29.94F                  
SCHRIEVER AFB  NOT AVBL                                               
CHEYENNE MTN   NOT AVBL                                               
ELLICOTT         N/A    N/A N/A N/A S7        29.94F                  
FALCON         FAIR      76  38  26 S10G16    30.00F                  
FORT CARSON    PTSUNNY   78  45  30 SE14      29.90F                  
LIMON          FAIR      77  45  32 MISG      29.90F                  
MONUMENT HILL  FAIR      73  36  25 SW9G20    30.01S                  
CANON CITY     FAIR      90  36  14 SW14G23   29.88F                  
WALSENBURG     NOT AVBL                                               
TRINIDAD       FAIR      80  36  20 VRB3G22   29.94F                  
$$

COZ042>045-048>051-090-091-192300-
...NORTHEAST COLORADO...
  
CITY           SKY/WX    TMP DP  RH WIND       PRES   REMARKS
GREELEY ARPT   FAIR      82  47  29 NE5       29.82F                  
AKRON          FAIR      74  52  46 MISG      29.86F                  
BURLINGTON     FAIR      80  46  30 W12       29.85F                  
WRAY           FAIR      81  45  28 N7        29.81S                  
YUMA           MOCLDY    77  -4   4 W6        29.82F                  
STERLING       FAIR      72  55  56 N5        29.81R                  
HOLYOKE        FAIR      84  48  28 W5        29.81S                  
FORT MORGAN    FAIR      78  45  31 E6        29.84F                  
$$

COZ086-089-092>099-192300-
...SOUTHEAST COLORADO...
  
CITY           SKY/WX    TMP DP  RH WIND       PRES   REMARKS
PUEBLO         FAIR      83  47  28 E10       29.85F                  
LA JUNTA       FAIR      86  41  20 VRB3      29.85F                  
LAMAR          FAIR      83  48  29 VRB5      29.82F                  
SPRINGFIELD      N/A     80  47  31 VRB3      29.89F                  
$$